Vorticity
2 2 3 2 2 5 5 4 4 3 3 4 4 5 4 3 4 5 5 7 7 7 8 8 8 9 9 9 9 9 8 8 8 7 6 6 5 5 5 5 5 5 5
4 3 3 3 2 3 4 4 4 4 4 3 4 5 4 3 3 5 7 8 8 8 8 7 7 7 7 7 7 7 7 7 7 7 8 9 10 10 9 8 7 6 5
5 5 4 4 3 3 4 4 4 5 4 4 4 5 4 3 3 6 8 8 8 7 7 6 6 5 5 4 4 4 5 5 6 6 6 6 7 7 7 8 8 9 9
7 7 6 5 3 4 4 4 4 6 5 6 5 5 4 2 5 7 8 8 8 7 6 6 5 4 4 4 4 4 5 5 6 6 6 6 6 6 7 7 7 7 8
3 6 10 7 5 5 5 4 5 7 6 7 6 5 2 4 5 7 8 8 7 7 6 5 4 3 3 4 4 4 5 5 5 5 5 6 6 6 6 6 8 9 8
7 5 6 6 8 7 7 7 8 6 7 8 6 4 3 6 5 7 8 8 8 7 6 5 4 3 3 3 3 3 3 4 5 4 4 5 4 5 7 6 6 9 10
10 12 9 7 4 10 12 10 7 7 9 8 5 2 7 4 5 8 8 8 8 7 6 5 4 4 3 3 3 3 3 3 3 2 3 4 6 7 4 5 7 7 8
7 6 7 5 7 8 8 7 5 9 9 5 3 6 5 5 5 8 8 8 8 7 7 5 4 4 3 3 3 3 2 2 2 2 1 1 2 6 8 6 6 7 7
5 6 3 8 7 9 9 6 6 5 4 4 5 6 6 6 9 7 7 8 8 8 6 6 4 4 3 3 3 3 3 2 2 2 1 1 4 6 9 6 7 7 8
5 0 5 0 5 6 5 13 11 2 5 6 8 8 8 8 6 7 7 8 8 8 8 7 6 4 4 4 3 3 3 3 3 3 2 1 1 6 9 7 7 7 8
-1 -1 5 5 2 1 6 6 6 3 7 6 8 8 10 13 8 10 9 9 9 10 9 8 7 6 5 4 4 4 3 3 3 3 3 4 1 7 9 8 7 8 7
19 24 17 8 5 0 -1 1 4 5 9 8 13 6 -1 -18 -0 -6 14 3 5 5 4 6 9 7 6 5 5 5 4 5 4 4 3 3 2 10 9 9 8 7 6
1 2 9 17 11 14 19 11 7 5 11 9 6 4 10 14 10 10 17 -1 7 6 8 6 3 3 6 7 5 6 3 4 4 4 3 3 8 10 9 8 7 7 8
21 17 11 2 2 14 15 13 9 6 3 11 2 9 7 5 5 -4 17 -9 3 3 13 -5 10 3 2 7 7 -2 12 2 4 3 5 5 8 10 8 7 8 7 7
12 12 14 18 14 9 4 16 13 8 5 6 8 10 5 4 6 10 9 0 8 3 14 2 7 3 5 1 2 12 6 7 2 6 5 10 10 8 7 8 7 7 6
7 10 11 15 19 10 9 5 14 13 5 7 3 8 2 2 8 1 7 -11 12 11 -6 20 -2 6 9 5 9 11 9 3 5 5 7 9 9 8 7 7 7 6 8
14 12 12 13 8 23 13 8 7 11 16 15 7 -2 7 -3 15 -5 9 4 5 3 12 16 -9 16 3 15 11 8 8 9 8 8 8 8 8 8 8 9 9 11 12
12 8 13 11 11 9 11 17 10 6 9 8 14 7 19 2 18 15 3 6 18 -0 22 1 35 11 15 10 11 9 6 10 6 9 9 8 8 9 11 12 14 16 20
18 10 8 1 10 19 16 8 15 10 7 6 7 13 7 -3 25 -11 1 11 23 28 -9 13 9 13 14 14 8 9 4 12 8 9 9 10 11 14 16 16 18 19 18
8 12 -2 9 13 19 18 18 10 15 12 10 11 15 16 2 2 -2 13 15 19 11 8 14 14 13 11 7 6 13 9 8 9 11 11 12 16 21 17 17 16 10 9
20 10 11 16 0 14 13 21 18 20 14 9 8 -0 28 12 13 16 21 12 18 20 18 10 9 7 5 15 9 9 9 9 12 14 15 18 20 17 16 9 10 9 10
43 44 20 7 12 12 15 18 20 23 17 17 4 6 6 10 20 22 17 16 13 10 8 7 11 20 9 9 9 9 11 10 16 21 19 23 19 11 10 10 12 13 11
17 14 15 11 14 22 18 17 15 9 6 28 6 -5 18 18 21 15 12 9 5 5 12 11 7 9 9 10 12 12 13 12 17 27 19 17 10 7 11 14 16 14 12
14 14 10 16 7 23 24 3 13 17 15 13 19 16 16 15 9 3 5 9 10 9 9 11 10 8 9 10 9 12 17 21 28 18 13 8 8 11 13 15 16 16 15
17 7 15 20 7 15 25 26 16 25 23 16 7 3 2 7 8 6 6 8 9 11 8 9 10 10 10 14 19 24 28 21 16 10 7 5 11 12 12 18 17 15 14
16 26 30 33 34 29 24 19 6 2 4 4 8 7 7 6 5 5 8 10 9 8 9 12 17 22 28 29 27 19 13 11 8 6 7 4 9 9 9 9 12 11 13
Height
3173 3173 3173 3173 3173 3173 3173 3173 3172 3172 3171 3171 3170 3169 3169 3168 3167 3164 3163 3162 3160 3159 3158 3157 3156 3155 3154 3153 3153 3152 3152 3151 3151 3150 3149 3149 3149 3148 3148 3148 3148 3148 3148
3168 3168 3168 3168 3168 3169 3169 3169 3168 3168 3167 3167 3166 3165 3164 3164 3163 3161 3160 3158 3157 3156 3156 3155 3154 3153 3152 3151 3150 3150 3149 3149 3148 3147 3147 3146 3146 3145 3144 3144 3144 3143 3143
3162 3163 3163 3164 3163 3164 3164 3164 3164 3163 3163 3163 3162 3161 3161 3160 3159 3158 3156 3155 3154 3153 3153 3152 3151 3150 3150 3149 3148 3148 3147 3146 3145 3145 3144 3143 3142 3141 3141 3140 3139 3139 3138
3156 3157 3158 3158 3158 3158 3158 3159 3158 3158 3158 3158 3157 3157 3156 3156 3155 3154 3152 3151 3150 3150 3149 3149 3148 3147 3146 3146 3146 3144 3144 3143 3142 3141 3140 3139 3138 3137 3136 3135 3134 3133 3133
3151 3151 3152 3152 3152 3152 3152 3152 3152 3152 3152 3152 3152 3152 3152 3151 3150 3149 3148 3147 3146 3146 3146 3145 3145 3144 3143 3142 3141 3140 3139 3139 3138 3137 3136 3135 3133 3132 3131 3130 3129 3127 3126
3145 3145 3145 3145 3145 3145 3145 3146 3146 3147 3146 3147 3147 3146 3146 3146 3145 3143 3142 3142 3141 3141 3141 3141 3140 3139 3139 3138 3137 3136 3135 3134 3133 3132 3131 3130 3129 3127 3125 3124 3122 3121 3120
3137 3137 3138 3138 3138 3139 3139 3139 3139 3140 3140 3141 3141 3141 3140 3140 3139 3138 3137 3137 3136 3136 3135 3135 3134 3133 3133 3132 3132 3131 3129 3129 3128 3126 3125 3124 3122 3121 3119 3117 3115 3114 3112
3129 3130 3131 3131 3131 3132 3132 3133 3134 3133 3134 3135 3135 3134 3133 3134 3133 3132 3132 3131 3130 3130 3129 3129 3128 3127 3127 3126 3126 3125 3124 3123 3121 3120 3119 3117 3115 3114 3112 3110 3108 3106 3104
3123 3122 3123 3123 3123 3124 3125 3126 3127 3127 3127 3127 3128 3127 3126 3126 3127 3127 3126 3125 3124 3123 3123 3123 3122 3122 3121 3120 3119 3118 3118 3116 3115 3113 3111 3109 3107 3105 3103 3101 3099 3097 3095
3113 3114 3114 3114 3114 3116 3116 3118 3119 3119 3118 3119 3119 3120 3119 3120 3119 3119 3119 3118 3118 3117 3117 3117 3116 3115 3114 3113 3112 3111 3110 3109 3107 3106 3103 3101 3098 3096 3094 3092 3090 3088 3086
3102 3103 3104 3104 3105 3107 3108 3109 3110 3110 3111 3110 3112 3112 3111 3112 3112 3111 3111 3112 3111 3110 3109 3108 3109 3108 3107 3106 3104 3103 3103 3101 3099 3097 3095 3092 3089 3086 3083 3081 3079 3077 3075
3088 3091 3092 3092 3094 3096 3098 3100 3100 3101 3102 3101 3103 3102 3102 3103 3104 3104 3104 3104 3104 3103 3101 3100 3099 3098 3097 3096 3094 3094 3093 3091 3089 3088 3085 3082 3079 3075 3073 3071 3068 3065 3063
3076 3078 3081 3081 3081 3083 3087 3088 3089 3091 3092 3092 3093 3094 3094 3094 3095 3096 3095 3095 3094 3094 3092 3091 3090 3089 3088 3086 3083 3082 3081 3079 3079 3077 3075 3072 3068 3065 3062 3059 3057 3054 3052
3064 3066 3067 3069 3070 3072 3073 3075 3077 3080 3082 3082 3083 3084 3085 3085 3086 3085 3085 3083 3084 3083 3083 3081 3081 3079 3077 3075 3072 3071 3068 3068 3066 3065 3063 3060 3055 3053 3050 3047 3044 3042 3039
3056 3057 3056 3057 3058 3059 3060 3062 3065 3069 3071 3073 3074 3075 3075 3075 3075 3076 3076 3075 3074 3073 3072 3070 3069 3069 3065 3063 3060 3059 3056 3055 3055 3053 3050 3047 3043 3041 3038 3034 3031 3028 3025
3046 3047 3048 3048 3048 3049 3049 3051 3053 3056 3059 3062 3063 3063 3061 3063 3063 3064 3064 3065 3061 3064 3060 3060 3057 3054 3055 3052 3049 3048 3045 3044 3042 3041 3036 3032 3029 3027 3023 3019 3016 3012 3009
3037 3037 3038 3039 3039 3040 3041 3042 3044 3046 3048 3050 3052 3054 3045 3050 3047 3053 3053 3054 3054 3052 3050 3049 3044 3044 3043 3039 3038 3035 3034 3031 3029 3027 3023 3019 3015 3012 3008 3004 3001 2997 2994
3027 3028 3029 3029 3029 3030 3031 3033 3035 3038 3039 3041 3042 3043 3044 3043 3044 3044 3044 3041 3041 3039 3038 3037 3034 3033 3032 3029 3027 3024 3022 3020 3017 3014 3009 3005 3002 2998 2994 2990 2986 2983 2980
3017 3018 3019 3020 3020 3020 3021 3023 3025 3027 3029 3031 3033 3034 3034 3034 3035 3030 3032 3032 3029 3028 3027 3025 3021 3023 3020 3018 3015 3012 3010 3008 3006 3002 2997 2993 2989 2985 2980 2976 2973 2971 2968
3008 3010 3011 3011 3011 3011 3012 3014 3016 3018 3020 3021 3024 3026 3025 3025 3026 3024 3023 3019 3019 3019 3018 3016 3013 3011 3010 3007 3003 3000 2999 2995 2992 2990 2985 2981 2975 2970 2967 2963 2962 2959 2956
3001 3002 3002 3003 3004 3004 3005 3006 3009 3011 3013 3015 3016 3017 3016 3017 3016 3015 3011 3010 3010 3009 3007 3007 3005 3003 2998 2994 2992 2989 2985 2982 2982 2978 2972 2967 2963 2959 2956 2952 2951 2947 2944
2993 2993 2996 2997 2998 2998 2998 2999 3000 3003 3005 3007 3007 3008 3008 3007 3006 3005 3004 3002 3002 3000 2999 2997 2992 2988 2986 2983 2980 2977 2974 2971 2968 2966 2959 2957 2953 2951 2947 2944 2942 2938 2933
2989 2990 2990 2991 2992 2992 2993 2994 2994 2995 2998 2999 3000 3000 2999 2998 2998 2997 2996 2995 2993 2992 2991 2987 2983 2980 2976 2973 2970 2966 2962 2957 2954 2953 2948 2946 2945 2943 2940 2937 2933 2928 2924
2986 2986 2986 2986 2986 2986 2985 2988 2989 2989 2991 2994 2992 2993 2992 2992 2992 2990 2988 2986 2983 2983 2979 2975 2971 2968 2964 2961 2956 2952 2950 2946 2944 2944 2940 2937 2936 2932 2930 2928 2924 2920 2915
2985 2985 2984 2982 2981 2980 2982 2983 2982 2982 2986 2987 2987 2987 2987 2986 2984 2981 2979 2979 2977 2972 2968 2963 2960 2956 2952 2949 2945 2942 2939 2938 2937 2937 2933 2928 2928 2922 2920 2920 2916 2912 2907
2983 2983 2982 2981 2981 2981 2980 2983 2983 2984 2985 2984 2985 2983 2982 2979 2976 2973 2972 2970 2965 2962 2958 2954 2949 2945 2942 2939 2936 2934 2933 2932 2930 2929 2924 2923 2921 2914 2910 2915 2909 2903 2899